Total_Precipitation_Accumulation
0.00 0.01 0.02 0.02 0.04 0.06 0.06 0.06 0.08 0.09 0.08 0.09 0.11 0.15 0.14 0.10 0.08 0.07 0.07 0.07 0.10 0.13 0.13 0.13 0.13 0.13 0.11 0.08 0.05 0.03 0.02 0.02 0.03 0.04 0.05 0.07 0.08 0.08 0.08 0.07 0.12 0.19 0.07
0.00 0.00 0.01 0.01 0.03 0.05 0.06 0.05 0.06 0.07 0.06 0.08 0.09 0.11 0.11 0.10 0.08 0.08 0.07 0.08 0.10 0.12 0.13 0.11 0.09 0.10 0.09 0.05 0.03 0.02 0.01 0.03 0.05 0.07 0.08 0.09 0.13 0.11 0.10 0.08 0.14 0.33 0.15
0.00 0.00 0.01 0.02 0.03 0.04 0.05 0.05 0.06 0.05 0.06 0.08 0.08 0.09 0.09 0.09 0.08 0.08 0.08 0.11 0.16 0.18 0.17 0.14 0.12 0.13 0.11 0.07 0.04 0.02 0.02 0.04 0.08 0.12 0.21 0.26 0.31 0.15 0.11 0.08 0.07 0.13 0.17
0.00 0.00 0.01 0.02 0.03 0.04 0.03 0.05 0.07 0.07 0.07 0.07 0.07 0.08 0.08 0.07 0.07 0.07 0.08 0.11 0.16 0.21 0.21 0.18 0.16 0.14 0.10 0.06 0.04 0.02 0.02 0.04 0.09 0.17 0.34 0.42 0.43 0.26 0.17 0.16 0.15 0.13 0.18
0.00 0.00 0.01 0.02 0.02 0.03 0.03 0.03 0.06 0.07 0.07 0.06 0.07 0.07 0.07 0.07 0.07 0.08 0.09 0.10 0.12 0.15 0.15 0.11 0.09 0.09 0.09 0.05 0.03 0.03 0.04 0.05 0.11 0.24 0.52 0.74 0.61 0.38 0.21 0.19 0.22 0.21 0.23
0.00 0.00 0.01 0.02 0.03 0.04 0.05 0.05 0.07 0.06 0.07 0.07 0.08 0.10 0.10 0.09 0.08 0.10 0.13 0.13 0.12 0.13 0.11 0.09 0.08 0.07 0.08 0.04 0.02 0.04 0.06 0.09 0.15 0.35 0.63 0.81 0.53 0.34 0.26 0.27 0.27 0.28 0.27
0.01 0.01 0.01 0.02 0.05 0.07 0.08 0.09 0.11 0.12 0.11 0.11 0.12 0.13 0.13 0.12 0.12 0.13 0.14 0.15 0.14 0.14 0.12 0.10 0.12 0.11 0.07 0.03 0.02 0.03 0.04 0.06 0.16 0.55 0.72 0.77 0.53 0.33 0.28 0.26 0.23 0.23 0.24
0.02 0.01 0.00 0.01 0.04 0.09 0.12 0.16 0.17 0.14 0.12 0.11 0.12 0.15 0.13 0.10 0.09 0.09 0.10 0.11 0.13 0.15 0.15 0.10 0.06 0.05 0.02 0.01 0.01 0.03 0.04 0.07 0.14 0.42 0.62 0.50 0.30 0.19 0.17 0.13 0.14 0.14 0.13
0.01 0.01 0.00 0.01 0.03 0.10 0.17 0.16 0.14 0.12 0.10 0.10 0.13 0.17 0.15 0.10 0.07 0.07 0.09 0.11 0.11 0.11 0.08 0.04 0.02 0.01 0.00 0.01 0.01 0.02 0.03 0.04 0.11 0.20 0.22 0.17 0.13 0.09 0.07 0.06 0.05 0.06 0.06
0.01 0.01 0.01 0.02 0.05 0.09 0.11 0.11 0.09 0.07 0.06 0.07 0.11 0.13 0.10 0.07 0.06 0.07 0.07 0.06 0.06 0.08 0.08 0.04 0.02 0.01 0.01 0.01 0.01 0.01 0.01 0.02 0.06 0.09 0.17 0.17 0.09 0.06 0.05 0.04 0.04 0.04 0.03
0.01 0.01 0.01 0.01 0.03 0.05 0.05 0.02 0.03 0.03 0.03 0.03 0.04 0.05 0.05 0.08 0.12 0.12 0.07 0.06 0.09 0.10 0.08 0.04 0.02 0.02 0.01 0.01 0.01 0.01 0.01 0.01 0.03 0.07 0.19 0.26 0.14 0.06 0.03 0.03 0.03 0.02 0.02
0.00 0.00 0.00 0.01 0.01 0.04 0.04 0.02 0.03 0.03 0.03 0.03 0.05 0.03 0.05 0.17 0.24 0.19 0.15 0.11 0.10 0.08 0.04 0.03 0.03 0.02 0.01 0.01 0.01 0.01 0.01 0.01 0.02 0.09 0.13 0.10 0.09 0.08 0.05 0.04 0.03 0.02 0.02
0.01 0.00 0.01 0.01 0.03 0.13 0.14 0.05 0.05 0.05 0.04 0.03 0.05 0.05 0.12 0.18 0.16 0.14 0.16 0.11 0.07 0.05 0.04 0.04 0.03 0.02 0.01 0.01 0.01 0.01 0.02 0.02 0.02 0.06 0.09 0.07 0.09 0.11 0.09 0.07 0.04 0.04 0.03
0.02 0.00 0.01 0.01 0.03 0.09 0.12 0.05 0.04 0.04 0.04 0.04 0.06 0.05 0.13 0.17 0.17 0.19 0.28 0.20 0.15 0.13 0.11 0.07 0.06 0.05 0.03 0.03 0.01 0.02 0.02 0.02 0.02 0.03 0.04 0.05 0.08 0.12 0.12 0.11 0.09 0.08 0.08
0.03 0.01 0.00 0.00 0.02 0.02 0.02 0.03 0.03 0.03 0.02 0.03 0.04 0.06 0.10 0.15 0.18 0.23 0.29 0.35 0.23 0.21 0.18 0.15 0.12 0.11 0.09 0.04 0.03 0.02 0.02 0.02 0.02 0.02 0.04 0.06 0.08 0.12 0.17 0.15 0.14 0.13 0.14
0.03 0.02 0.01 0.00 0.01 0.01 0.01 0.01 0.02 0.02 0.03 0.03 0.05 0.07 0.06 0.13 0.27 0.34 0.32 0.31 0.22 0.19 0.22 0.27 0.26 0.17 0.12 0.09 0.06 0.05 0.05 0.05 0.05 0.05 0.06 0.09 0.12 0.14 0.19 0.20 0.20 0.21 0.20
0.05 0.03 0.03 0.01 0.01 0.01 0.01 0.01 0.03 0.05 0.05 0.05 0.08 0.08 0.09 0.11 0.21 0.27 0.32 0.32 0.27 0.24 0.22 0.21 0.25 0.26 0.21 0.18 0.14 0.10 0.10 0.12 0.11 0.10 0.09 0.10 0.13 0.16 0.19 0.19 0.20 0.19 0.19
0.07 0.05 0.04 0.03 0.02 0.01 0.02 0.03 0.06 0.09 0.09 0.09 0.11 0.14 0.16 0.18 0.23 0.29 0.35 0.38 0.37 0.36 0.37 0.35 0.32 0.32 0.32 0.27 0.23 0.21 0.19 0.20 0.18 0.16 0.14 0.14 0.17 0.18 0.19 0.17 0.15 0.14 0.14
0.10 0.08 0.07 0.05 0.04 0.04 0.05 0.07 0.11 0.13 0.16 0.18 0.21 0.26 0.32 0.38 0.42 0.46 0.51 0.55 0.55 0.57 0.54 0.49 0.44 0.39 0.39 0.34 0.25 0.20 0.19 0.20 0.17 0.14 0.14 0.14 0.14 0.13 0.13 0.12 0.12 0.13 0.12
0.18 0.12 0.10 0.07 0.10 0.11 0.13 0.16 0.18 0.23 0.30 0.37 0.44 0.56 0.72 0.82 0.81 0.79 0.79 0.79 0.80 0.74 0.66 0.56 0.48 0.42 0.36 0.31 0.21 0.15 0.13 0.12 0.10 0.08 0.08 0.08 0.08 0.07 0.06 0.06 0.06 0.07 0.09
0.22 0.16 0.14 0.17 0.23 0.28 0.35 0.37 0.45 0.63 0.78 0.94 1.13 1.34 1.45 1.36 1.28 1.18 1.10 1.06 0.98 0.86 0.72 0.58 0.48 0.40 0.33 0.26 0.21 0.16 0.09 0.06 0.04 0.04 0.04 0.04 0.03 0.03 0.03 0.03 0.03 0.03 0.04
0.26 0.23 0.25 0.31 0.47 0.66 0.91 1.14 1.36 1.58 1.68 1.85 2.03 2.09 2.02 1.86 1.72 1.60 1.51 1.39 1.19 1.00 0.82 0.65 0.51 0.41 0.33 0.26 0.22 0.19 0.13 0.07 0.04 0.02 0.02 0.02 0.02 0.02 0.02 0.02 0.02 0.02 0.02
0.35 0.37 0.41 0.57 0.91 1.30 1.57 1.83 2.22 2.51 2.55 2.56 2.50 2.41 2.32 2.19 2.04 1.86 1.74 1.58 1.37 1.14 0.95 0.75 0.56 0.43 0.33 0.24 0.16 0.13 0.11 0.09 0.05 0.02 0.02 0.02 0.02 0.02 0.01 0.01 0.01 0.01 0.01
0.40 0.48 0.57 0.87 1.42 1.85 2.12 2.51 2.93 3.16 3.29 3.29 3.01 2.66 2.32 2.05 1.82 1.63 1.46 1.28 1.11 0.93 0.77 0.59 0.43 0.30 0.21 0.15 0.11 0.08 0.06 0.05 0.05 0.03 0.01 0.01 0.01 0.01 0.01 0.00 0.00 0.01 0.01
0.45 0.61 0.78 1.11 1.55 2.02 2.56 3.08 3.37 3.51 3.51 3.26 2.77 2.27 1.95 1.75 1.54 1.33 1.14 0.94 0.74 0.58 0.46 0.36 0.26 0.21 0.17 0.13 0.09 0.07 0.05 0.04 0.03 0.04 0.03 0.01 0.00 0.00 0.00 0.00 0.00 0.00 0.00
0.59 0.72 0.90 1.14 1.51 2.00 2.48 2.86 2.88 2.95 2.87 2.53 2.18 1.96 1.78 1.51 1.22 0.95 0.72 0.53 0.39 0.31 0.26 0.23 0.18 0.14 0.10 0.07 0.04 0.03 0.03 0.02 0.02 0.02 0.02 0.01 0.00 0.00 0.00 0.00 0.00 0.00 0.00